Location: Unspecified
(33.9425°N, 0.0000°E)
Time: 12:12:52
(UTC+00:00)

CZ-4 R/B DEB - Visible Passes

Search period start: 04 April 2026 00:00
Search period end: 14 April 2026 00:00
Orbit: 806 x 816 km, 98.7° (Epoch: 27 March)

Date Brightness Start Highest point End Pass type
(mag) Time Alt. Az. Time Alt. Az. Time Alt. Az.
4 Apr ? 04:18:11 10° NE 04:22:30 25° E 04:26:46 10° SSE visible
5 Apr ? 03:56:00 10° ENE 03:58:45 14° E 04:01:29 10° SE visible
6 Apr ? 05:10:05 10° NNE 05:15:25 84° ESE 05:20:43 10° SSW visible
7 Apr ? 04:46:42 10° NNE 04:51:50 48° E 04:56:55 10° S visible
8 Apr ? 04:23:40 10° NE 04:28:10 28° E 04:32:40 10° SSE visible
9 Apr ? 04:01:13 10° NE 04:04:26 16° E 04:07:39 10° SE visible
11 Apr ? 04:52:15 10° NNE 04:57:28 55° E 05:02:37 10° S visible
12 Apr ? 04:29:06 10° NE 04:33:49 32° E 04:38:28 10° SSE visible
13 Apr ? 04:06:28 10° NE 04:10:05 18° E 04:13:40 10° SE visible
